[Iaude] MPEC S96: 2019 SS3 [a=1.37,e=0.46,i=8.0,H=26.2]

mpec at marsden.cfa.harvard.edu mpec at marsden.cfa.harvard.edu
Thu Sep 26 07:18:43 EDT 2019


M.P.E.C. 2019-S96                            Issued 2019 September 26, 11:17 UT

     The Minor Planet Electronic Circulars contain information on unusual
         minor planets and routine data on comets.  They are published
    on behalf of Division F of the International Astronomical Union by the
          Minor Planet Center, Smithsonian Astrophysical Observatory,
                          Cambridge, MA 02138, U.S.A.

             Prepared using the Tamkin Foundation Computer Network

                              MPC at CFA.HARVARD.EDU
            URL https://www.minorplanetcenter.net/    ISSN 1523-6714

                                    2019 SS3                                    


Observations:
     K19S03S* C2019 09 25.31123423 33 01.54 +21 23 57.0          19.11cVES096T05
     K19S03S  C2019 09 25.31483923 33 01.89 +21 23 31.5          19.11cVES096T05
     K19S03S  C2019 09 25.32033423 33 02.35 +21 22 52.4          18.67cVES096T05
     K19S03S  C2019 09 25.33066923 33 03.15 +21 21 39.6          18.40cVES096T05
     K19S03S  C2019 09 25.41776823 33 08.27 +21 11 22.2          18.64cVES096T05
     K19S03S  C2019 09 25.43014623 33 08.87 +21 09 55.0          18.86cVES096T05
     K19S03S  C2019 09 25.43669823 33 09.22 +21 09 08.5          18.84cVES096T05
     K19S03S  C2019 09 25.44916123 33 09.95 +21 07 39.6          18.99cVES096T05
     K19S03S  C2019 09 25.45903223 33 10.57 +21 06 30.2          19.32cVES096T05
     K19S03S  C2019 09 25.46702723 33 10.98 +21 05 33.6          18.84cVES096T05
     K19S03S  C2019 09 25.54695223 33 17.25 +20 56 16.3          18.56oVES096T08
     K19S03S  C2019 09 25.55315123 33 17.96 +20 55 32.3          18.76oVES096T08
     K19S03S  C2019 09 25.55912923 33 18.63 +20 54 51.3          18.75oVES096T08
     K19S03S  C2019 09 25.57188923 33 20.22 +20 53 22.1          18.65oVES096T08
     K19S03S  C2019 09 25.57812223 33 21.05 +20 52 38.7          18.65oVES096T08
     K19S03S  C2019 09 25.59053723 33 22.74 +20 51 13.0          18.73oVES096T08
     K19S03S KC2019 09 26.10816123 35 25.82 +20 05 50.2          19.3 VuES096H21
     K19S03S KC2019 09 26.11106823 35 25.94 +20 05 38.9          19.3 VuES096H21
     K19S03S KC2019 09 26.11397323 35 26.06 +20 05 27.4          19.4 VuES096H21
     K19S03S KC2019 09 26.11688123 35 26.18 +20 05 15.9          19.3 VuES096H21
     K19S03S KC2019 09 26.13035 23 35 25.52 +20 04 49.7          19.1 GVES096W34
     K19S03S KC2019 09 26.13786 23 35 25.66 +20 04 19.8          19.2 GVES096W34
     K19S03S KC2019 09 26.14520 23 35 25.86 +20 03 50.5          19.1 GVES096W34
     K19S03S KC2019 09 26.15311 23 35 25.97 +20 03 18.3          19.1 GVES096W34

Observer details:
H21 Astronomical Research Observatory, Westfield.  Observer R. Holmes.  
    Measurers S. Foglia, L. Buzzi, T. Linder, R. Holmes.  0.76-m f/3.0 
   astrograph + CCD.
T05 ATLAS-HKO, Haleakala.  Observers L. Denneau, J. Tonry, A. Heinze, H. 
   Weiland, H. Flewelling.  Measurers L. Denneau, J. Tonry, A. Heinze, H. 
   Weiland, H. Flewelling, B. Stalder, A. Fitzsimmons, J. Robinson, D. Young, 
   N. Erasmus.  0.5-m reflector + CCD.
T08 ATLAS-MLO, Mauna Loa.  Observers L. Denneau, J. Tonry, A. Heinze, H. 
   Weiland, H. Flewelling.  Measurers L. Denneau, J. Tonry, A. Heinze, H. 
   Weiland, H. Flewelling, B. Stalder, A. Fitzsimmons, J. Robinson, D. Young, 
   N. Erasmus.  0.5-m reflector + CCD.
W34 Squirrel Valley Observatory, Columbus.  Observer R. L. Flynn.  0.35-m f/1.9 
   Schmidt-Cassegrain + CCD.

Orbital elements:
2019 SS3                                                 Earth MOID = 0.0019 AU
Epoch 2019 Apr. 27.0 TT = JDT 2458600.5                 Veres
M 301.37784              (2000.0)            P               Q
n   0.61623660     Peri.  279.48764     +0.14161557     +0.98991619
a   1.3676377      Node   358.64046     -0.84467799     +0.11909295
e   0.4634979      Incl.    8.02011     -0.51620164     +0.07669939
P   1.60           H   26.2           G   0.15           U   7
Residuals in seconds of arc
190925 T05  0.4-  0.2-    190925 T05  0.9+  0.3+    190926 H21  0.2+  0.0
190925 T05  0.1+  0.1-    190925 T05  0.1-  0.4+    190926 H21  0.1+  0.2+
190925 T05  0.1+  0.2-    190925 T08  0.1+  0.0     190926 H21  0.0   0.1+
190925 T05  0.0   0.2+    190925 T08  0.3+  0.6-    190926 H21  0.1-  0.1+
190925 T05  0.2+  0.2-    190925 T08  0.1-  0.2+    190926 W34  0.2+  0.2-
190925 T05  0.4-  0.3+    190925 T08  0.0   0.1-    190926 W34  0.3-  0.0
190925 T05  0.4-  0.3+    190925 T08  0.1+  0.2-    190926 W34  0.3+  0.1+
190925 T05  0.2+  0.3-    190925 T08  0.6-  0.0     190926 W34  0.3-  0.3-

Ephemeris:
2019 SS3                 a,e,i = 1.37, 0.46, 8                   q = 0.7337
Date    TT    R. A. (2000) Decl.     Delta      r    Elong.  Phase     V
2019 08 27    11 38 00.6 -14 16 52   0.2370  0.8172    31.2   140.1    29.5
...
2019 09 11    11 42 59.6 -15 45 05   0.1002  0.9146    21.8   155.9    30.8
...
2019 09 19    11 46 48.9 -14 05 03   0.03281 0.9733    15.9   163.6    31.1
...
2019 09 25    23 31 13.9 +22 09 49   0.01710 1.0189   156.9    22.8    18.5
2019 09 26    23 34 58.6 +20 16 07   0.02535 1.0266   159.0    20.5    19.3
2019 09 27    23 36 51.5 +19 17 27   0.03364 1.0343   160.1    19.3    19.9
...
2019 10 03    23 40 37.7 +17 21 27   0.08392 1.0806   161.1    17.5    21.9
...
2019 10 11    23 43 12.5 +16 30 25   0.1532  1.1422   158.2    19.0    23.4
...
2019 10 26    23 50 14.1 +15 36 04   0.2944  1.2549   148.5    24.4    25.2

A. U. Tomatic                (C) Copyright 2019 MPC           M.P.E.C. 2019-S96




More information about the Iaude mailing list